| time (UTC) | temp F | wind direction | speed knots | gust knots | rain 1hr in | rain 24hr in | rain mn in | humidity % | barometer mb |
| 20260506043017 | 65 | 0.0 | 0.0 | 0.00 | 0.10 | 0.00 | 54 | 1006.5 | |
| 20260506040016 | 66 | 0.0 | 0.0 | 0.00 | 0.10 | 0.10 | 53 | 1006.8 | |
| 20260506033017 | 67 | 0.0 | 0.0 | 0.00 | 0.10 | 0.10 | 49 | 1006.6 | |
| 20260506030016 | 68 | 0.0 | 0.0 | 0.00 | 0.10 | 0.10 | 46 | 1006.6 | |
| 20260506023036 | 69 | 0.0 | 0.0 | 0.00 | 0.10 | 0.10 | 46 | 1006.6 | |
| 20260506020016 | 70 | 0.0 | 0.9 | 0.00 | 0.10 | 0.10 | 45 | 1006.6 | |
| 20260506013016 | 71 | 0.0 | 0.0 | 0.00 | 0.10 | 0.10 | 43 | 1006.1 | |
| 20260506010017 | 72 | 0.0 | 0.0 | 0.00 | 0.10 | 0.10 | 42 | 1005.8 | |
| 20260506003017 | 73 | 0.0 | 1.7 | 0.00 | 0.10 | 0.10 | 41 | 1005.3 | |
| 20260506000039 | 75 | 0.0 | 3.5 | 0.00 | 0.10 | 0.10 | 40 | 1005.2 | |
| 20260505233017 | 76 | 0.0 | 2.6 | 0.00 | 0.10 | 0.10 | 41 | 1004.9 | |
| 20260505230037 | 77 | 225 | 0.9 | 5.2 | 0.00 | 0.10 | 0.10 | 39 | 1004.7 |
| 20260505223038 | 78 | 225 | 1.7 | 7.8 | 0.00 | 0.10 | 0.10 | 38 | 1004.7 |
| 20260505220038 | 79 | 225 | 3.5 | 10.4 | 0.00 | 0.10 | 0.10 | 36 | 1004.9 |
| 20260505213016 | 80 | 225 | 2.6 | 11.3 | 0.00 | 0.10 | 0.10 | 36 | 1004.6 |
| 20260505210016 | 80 | 225 | 2.6 | 12.2 | 0.00 | 0.10 | 0.10 | 38 | 1004.7 |
| 20260505203016 | 81 | 225 | 2.6 | 8.7 | 0.00 | 0.10 | 0.10 | 37 | 1004.7 |
| 20260505200017 | 81 | 225 | 2.6 | 10.4 | 0.00 | 0.10 | 0.10 | 37 | 1004.7 |
| 20260505193018 | 82 | 225 | 3.5 | 11.3 | 0.00 | 0.10 | 0.10 | 38 | 1005.1 |
| 20260505190037 | 83 | 225 | 3.5 | 10.4 | 0.00 | 0.10 | 0.10 | 36 | 1005.3 |
| 20260505183038 | 83 | 225 | 2.6 | 8.7 | 0.00 | 0.10 | 0.10 | 37 | 1005.7 |
| 20260505180017 | 84 | 248 | 0.9 | 6.1 | 0.00 | 0.10 | 0.10 | 37 | 1005.9 |
| 20260505173017 | 82 | 225 | 1.7 | 5.2 | 0.00 | 0.10 | 0.10 | 40 | 1006.2 |
| 20260505170018 | 83 | 225 | 1.7 | 7.8 | 0.00 | 0.10 | 0.10 | 37 | 1006.3 |
| 20260505163017 | 81 | 203 | 0.9 | 5.2 | 0.00 | 0.10 | 0.10 | 43 | 1006.7 |
| 20260505153018 | 77 | 0.0 | 3.5 | 0.00 | 0.10 | 0.10 | 45 | 1007.3 | |
| 20260505123017 | 56 | 0.0 | 0.0 | 0.00 | 0.10 | 0.10 | 92 | 1008.4 | |
| 20260505120016 | 54 | 0.0 | 0.0 | 0.00 | 0.10 | 0.10 | 92 | 1007.8 | |
| 20260505113017 | 53 | 0.0 | 0.0 | 0.00 | 0.10 | 0.10 | 91 | 1007.8 | |
| 20260505100018 | 53 | 0.0 | 0.0 | 0.00 | 0.10 | 0.10 | 89 | 1007.2 | |
| 20260505093017 | 53 | 0.0 | 0.0 | 0.00 | 0.10 | 0.10 | 89 | 1007.0 | |
| 20260505090018 | 54 | 0.0 | 0.0 | 0.00 | 0.10 | 0.10 | 88 | 1006.8 | |
| 20260505083017 | 54 | 0.0 | 0.0 | 0.00 | 0.10 | 0.10 | 88 | 1006.9 | |
| 20260505080017 | 54 | 0.0 | 2.6 | 0.10 | 0.10 | 0.10 | 87 | 1007.1 | |
| 20260505073017 | 56 | 0.0 | 3.5 | 0.10 | 0.10 | 0.10 | 82 | 1006.7 | |
| 20260505070038 | 56 | 0.0 | 0.0 | 0.00 | 0.00 | 0.00 | 74 | 1006.7 | |
| 20260505063017 | 57 | 0.0 | 0.0 | 0.00 | 0.00 | 0.00 | 69 | 1006.8 | |
| 20260505060016 | 58 | 0.0 | 0.0 | 0.00 | 0.00 | 0.00 | 64 | 1006.8 | |
| 20260505053017 | 59 | 0.0 | 0.0 | 0.00 | 0.00 | 0.00 | 60 | 1007.0 |